Time,TemperatureF,DewpointF,PressureIn,WindDirection,WindDirectionDegrees,WindSpeedMPH,WindSpeedGustMPH,Humidity,HourlyPrecipIn,Conditions,Clouds,dailyrainin,SolarRadiationWatts/m^2,SoftwareType,DateUTC
2013-03-23 00:00:00,38.0,32.0,30.04,North,359,7.0,-999.0,79,0.00,,,-99.99,-1.900000,,2013-03-23 07:00:00,
2013-03-23 00:22:00,38.0,32.0,30.04,North,359,7.0,-999.0,79,0.00,,,-99.99,-1.900000,,2013-03-23 07:22:00,
2013-03-23 00:33:00,38.0,32.0,30.04,North,359,7.0,-999.0,79,0.00,,,-99.99,-1.900000,,2013-03-23 07:33:00,
2013-03-23 00:42:00,38.0,32.0,30.04,North,359,7.0,-999.0,79,0.00,,,-99.99,-1.900000,,2013-03-23 07:42:00,
2013-03-23 00:52:00,38.0,32.0,30.04,North,359,7.0,-999.0,79,0.00,,,-99.99,-1.900000,,2013-03-23 07:52:00,
2013-03-23 01:00:00,40.0,30.0,30.03,NNE,14,6.0,-999.0,67,0.00,,,-99.99,-2.800000,,2013-03-23 08:00:00,
2013-03-23 01:22:00,40.0,30.0,30.03,NNE,14,6.0,-999.0,67,0.00,,,-99.99,-2.800000,,2013-03-23 08:22:00,
2013-03-23 01:32:00,40.0,30.0,30.03,NNE,14,6.0,-999.0,67,0.00,,,-99.99,-2.800000,,2013-03-23 08:32:00,
2013-03-23 01:42:00,40.0,30.0,30.03,NNE,14,6.0,-999.0,67,0.00,,,-99.99,-2.800000,,2013-03-23 08:42:00,
2013-03-23 01:52:00,40.0,30.0,30.03,NNE,14,6.0,-999.0,67,0.00,,,-99.99,-2.800000,,2013-03-23 08:52:00,
2013-03-23 02:22:00,37.0,29.0,30.04,North,8,7.0,-999.0,70,0.00,,,-99.99,-3.600000,,2013-03-23 09:22:00,
2013-03-23 02:33:00,37.0,29.0,30.04,North,8,7.0,-999.0,70,0.00,,,-99.99,-3.600000,,2013-03-23 09:33:00,
2013-03-23 03:00:00,39.0,26.0,30.03,North,9,3.0,-999.0,60,0.00,,,-99.99,-3.300000,,2013-03-23 10:00:00,
2013-03-23 03:24:00,39.0,26.0,30.03,North,9,3.0,-999.0,60,0.00,,,-99.99,-3.300000,,2013-03-23 10:24:00,
2013-03-23 03:34:00,39.0,26.0,30.03,North,9,3.0,-999.0,60,0.00,,,-99.99,-3.300000,,2013-03-23 10:34:00,
2013-03-23 03:43:00,39.0,26.0,30.03,North,9,3.0,-999.0,60,0.00,,,-99.99,-3.300000,,2013-03-23 10:43:00,
2013-03-23 03:52:00,39.0,26.0,30.03,North,9,3.0,-999.0,60,0.00,,,-99.99,-3.300000,,2013-03-23 10:52:00,
2013-03-23 04:22:00,33.0,28.0,30.01,SSW,201,2.0,-999.0,80,0.00,,,-99.99,-4.000000,,2013-03-23 11:22:00,
2013-03-23 04:32:00,33.0,28.0,30.01,SSW,201,2.0,-999.0,80,0.00,,,-99.99,-4.000000,,2013-03-23 11:32:00,
2013-03-23 05:00:00,39.0,24.0,30.01,North,9,7.0,-999.0,53,0.00,,,-99.99,-1.600000,,2013-03-23 12:00:00,
2013-03-23 05:22:00,39.0,24.0,30.01,North,9,7.0,-999.0,53,0.00,,,-99.99,-1.600000,,2013-03-23 12:22:00,
2013-03-23 05:33:00,39.0,24.0,30.01,North,9,7.0,-999.0,53,0.00,,,-99.99,-1.600000,,2013-03-23 12:33:00,
2013-03-23 05:43:00,39.0,24.0,30.01,North,9,7.0,-999.0,53,0.00,,,-99.99,-1.600000,,2013-03-23 12:43:00,
2013-03-23 05:53:00,39.0,24.0,30.01,North,9,7.0,-999.0,53,0.00,,,-99.99,-1.600000,,2013-03-23 12:53:00,
2013-03-23 06:23:00,32.0,26.0,30.01,WNW,286,1.0,-999.0,75,0.00,,,-99.99,-4.600000,,2013-03-23 13:23:00,
2013-03-23 06:33:00,32.0,26.0,30.01,WNW,286,1.0,-999.0,75,0.00,,,-99.99,-4.600000,,2013-03-23 13:33:00,
2013-03-23 07:00:00,32.0,-99.9,30.03,WNW,299,0.0,-999.0,78,0.00,,,-99.99,-1.500000,,2013-03-23 14:00:00,
2013-03-23 07:23:00,32.0,26.0,30.03,WNW,299,0.0,-999.0,78,0.00,,,-99.99,-1.500000,,2013-03-23 14:23:00,
2013-03-23 07:33:00,32.0,26.0,30.03,WNW,299,0.0,-999.0,78,0.00,,,-99.99,-1.500000,,2013-03-23 14:33:00,
2013-03-23 07:43:00,32.0,-99.9,30.03,WNW,299,0.0,-999.0,78,0.00,,,-99.99,-1.500000,,2013-03-23 14:43:00,
2013-03-23 07:53:00,32.0,-99.9,30.03,WNW,299,0.0,-999.0,78,0.00,,,-99.99,-1.500000,,2013-03-23 14:53:00,
2013-03-23 09:00:00,42.0,26.0,30.05,NE,47,2.0,-999.0,53,0.00,,,-99.99,100.300003,,2013-03-23 16:00:00,
2013-03-23 09:23:00,42.0,26.0,30.05,NE,47,2.0,-999.0,53,0.00,,,-99.99,100.300003,,2013-03-23 16:23:00,
2013-03-23 09:33:00,42.0,26.0,30.05,NE,47,2.0,-999.0,53,0.00,,,-99.99,100.300003,,2013-03-23 16:33:00,
2013-03-23 09:43:00,42.0,26.0,30.05,NE,47,2.0,-999.0,53,0.00,,,-99.99,100.300003,,2013-03-23 16:43:00,
2013-03-23 09:53:00,42.0,26.0,30.05,NE,47,2.0,-999.0,53,0.00,,,-99.99,100.300003,,2013-03-23 16:53:00,
2013-03-23 10:00:00,54.0,30.0,30.08,East,88,1.0,-999.0,38,0.00,,,-99.99,456.299988,,2013-03-23 17:00:00,
2013-03-23 10:23:00,54.0,30.0,30.08,East,88,1.0,-999.0,38,0.00,,,-99.99,456.299988,,2013-03-23 17:23:00,
2013-03-23 10:33:00,54.0,30.0,30.08,East,88,1.0,-999.0,38,0.00,,,-99.99,456.299988,,2013-03-23 17:33:00,
2013-03-23 10:43:00,54.0,30.0,30.08,East,88,1.0,-999.0,38,0.00,,,-99.99,456.299988,,2013-03-23 17:43:00,
2013-03-23 10:52:00,54.0,30.0,30.08,East,88,1.0,-999.0,38,0.00,,,-99.99,456.299988,,2013-03-23 17:52:00,
2013-03-23 11:00:00,59.0,24.0,30.09,WSW,249,1.0,-999.0,25,0.00,,,-99.99,635.099976,,2013-03-23 18:00:00,
2013-03-23 11:23:00,59.0,24.0,30.09,WSW,249,1.0,-999.0,25,0.00,,,-99.99,635.099976,,2013-03-23 18:23:00,
2013-03-23 11:32:00,59.0,24.0,30.09,WSW,249,1.0,-999.0,25,0.00,,,-99.99,635.099976,,2013-03-23 18:32:00,
2013-03-23 11:43:00,59.0,24.0,30.09,WSW,249,1.0,-999.0,25,0.00,,,-99.99,635.099976,,2013-03-23 18:43:00,
2013-03-23 11:53:00,59.0,24.0,30.09,WSW,249,1.0,-999.0,25,0.00,,,-99.99,635.099976,,2013-03-23 18:53:00,
2013-03-23 12:00:00,62.0,29.0,30.07,WSW,250,1.0,-999.0,29,0.00,,,-99.99,757.400024,,2013-03-23 19:00:00,
2013-03-23 12:23:00,62.0,29.0,30.07,WSW,250,1.0,-999.0,29,0.00,,,-99.99,757.400024,,2013-03-23 19:23:00,
2013-03-23 12:33:00,62.0,29.0,30.07,WSW,250,1.0,-999.0,29,0.00,,,-99.99,757.400024,,2013-03-23 19:33:00,
2013-03-23 12:43:00,62.0,29.0,30.07,WSW,250,1.0,-999.0,29,0.00,,,-99.99,757.400024,,2013-03-23 19:43:00,
2013-03-23 12:53:00,62.0,29.0,30.07,WSW,250,1.0,-999.0,29,0.00,,,-99.99,757.400024,,2013-03-23 19:53:00,
2013-03-23 13:00:00,61.0,27.0,30.08,SW,214,2.0,-999.0,26,0.00,,,-99.99,826.799988,,2013-03-23 20:00:00,
2013-03-23 13:23:00,61.0,27.0,30.08,SW,214,2.0,-999.0,26,0.00,,,-99.99,826.799988,,2013-03-23 20:23:00,
2013-03-23 13:32:00,61.0,27.0,30.08,SW,214,2.0,-999.0,26,0.00,,,-99.99,826.799988,,2013-03-23 20:32:00,
2013-03-23 13:43:00,61.0,27.0,30.08,SW,214,2.0,-999.0,26,0.00,,,-99.99,826.799988,,2013-03-23 20:43:00,
2013-03-23 13:53:00,61.0,27.0,30.08,SW,214,2.0,-999.0,26,0.00,,,-99.99,826.799988,,2013-03-23 20:53:00,
2013-03-23 14:00:00,63.0,32.0,30.06,WSW,242,2.0,-999.0,32,0.00,,,-99.99,833.799988,,2013-03-23 21:00:00,
2013-03-23 14:23:00,63.0,32.0,30.06,WSW,242,2.0,-999.0,32,0.00,,,-99.99,833.799988,,2013-03-23 21:23:00,
2013-03-23 14:33:00,63.0,32.0,30.06,WSW,242,2.0,-999.0,32,0.00,,,-99.99,833.799988,,2013-03-23 21:33:00,
2013-03-23 14:43:00,63.0,32.0,30.06,WSW,242,2.0,-999.0,32,0.00,,,-99.99,833.799988,,2013-03-23 21:43:00,
2013-03-23 14:53:00,63.0,32.0,30.06,WSW,242,2.0,-999.0,32,0.00,,,-99.99,833.799988,,2013-03-23 21:53:00,
2013-03-23 15:00:00,63.0,31.0,30.05,SSE,164,2.0,-999.0,30,0.00,,,-99.99,781.099976,,2013-03-23 22:00:00,
2013-03-23 15:23:00,63.0,31.0,30.05,SSE,164,2.0,-999.0,30,0.00,,,-99.99,781.099976,,2013-03-23 22:23:00,
2013-03-23 15:33:00,63.0,31.0,30.05,SSE,164,2.0,-999.0,30,0.00,,,-99.99,781.099976,,2013-03-23 22:33:00,
2013-03-23 15:42:00,63.0,31.0,30.05,SSE,164,2.0,-999.0,30,0.00,,,-99.99,781.099976,,2013-03-23 22:42:00,
2013-03-23 15:53:00,63.0,31.0,30.05,SSE,164,2.0,-999.0,30,0.00,,,-99.99,781.099976,,2013-03-23 22:53:00,
2013-03-23 16:00:00,62.0,28.0,30.04,SSW,201,2.0,-999.0,26,0.00,,,-99.99,661.900024,,2013-03-23 23:00:00,
2013-03-23 16:23:00,62.0,28.0,30.04,SSW,201,2.0,-999.0,26,0.00,,,-99.99,661.900024,,2013-03-23 23:23:00,
2013-03-23 16:33:00,62.0,28.0,30.04,SSW,201,2.0,-999.0,26,0.00,,,-99.99,661.900024,,2013-03-23 23:33:00,
2013-03-23 16:43:00,62.0,28.0,30.04,SSW,201,2.0,-999.0,26,0.00,,,-99.99,661.900024,,2013-03-23 23:43:00,
2013-03-23 16:52:00,62.0,28.0,30.04,SSW,201,2.0,-999.0,26,0.00,,,-99.99,661.900024,,2013-03-23 23:52:00,
2013-03-23 17:00:00,61.0,26.0,30.04,SW,235,2.0,-999.0,25,0.00,,,-99.99,375.500000,,2013-03-24 00:00:00,
2013-03-23 17:23:00,61.0,26.0,30.04,SW,235,2.0,-999.0,25,0.00,,,-99.99,375.500000,,2013-03-24 00:23:00,
2013-03-23 17:33:00,61.0,26.0,30.04,SW,235,2.0,-999.0,25,0.00,,,-99.99,375.500000,,2013-03-24 00:33:00,
2013-03-23 17:42:00,61.0,26.0,30.04,SW,235,2.0,-999.0,25,0.00,,,-99.99,375.500000,,2013-03-24 00:42:00,
2013-03-23 17:52:00,61.0,26.0,30.04,SW,235,2.0,-999.0,25,0.00,,,-99.99,375.500000,,2013-03-24 00:52:00,
2013-03-23 18:00:00,61.0,28.0,30.04,West,262,1.0,-999.0,28,0.00,,,-99.99,86.400002,,2013-03-24 01:00:00,
2013-03-23 18:22:00,61.0,28.0,30.04,West,262,1.0,-999.0,28,0.00,,,-99.99,86.400002,,2013-03-24 01:22:00,
2013-03-23 18:33:00,61.0,28.0,30.04,West,262,1.0,-999.0,28,0.00,,,-99.99,86.400002,,2013-03-24 01:33:00,
2013-03-23 18:43:00,61.0,28.0,30.04,West,262,1.0,-999.0,28,0.00,,,-99.99,86.400002,,2013-03-24 01:43:00,
2013-03-23 18:53:00,61.0,28.0,30.04,West,262,1.0,-999.0,28,0.00,,,-99.99,86.400002,,2013-03-24 01:53:00,
2013-03-23 19:00:00,53.0,34.0,30.04,North,0,0.0,-999.0,48,0.00,,,-99.99,69.599998,,2013-03-24 02:00:00,
2013-03-23 19:22:00,53.0,34.0,30.04,North,0,0.0,-999.0,48,0.00,,,-99.99,69.599998,,2013-03-24 02:22:00,
2013-03-23 19:32:00,53.0,34.0,30.04,North,0,0.0,-999.0,48,0.00,,,-99.99,69.599998,,2013-03-24 02:32:00,
2013-03-23 19:42:00,53.0,34.0,30.04,North,0,0.0,-999.0,48,0.00,,,-99.99,69.599998,,2013-03-24 02:42:00,
2013-03-23 19:52:00,53.0,34.0,30.04,North,0,0.0,-999.0,48,0.00,,,-99.99,69.599998,,2013-03-24 02:52:00,
2013-03-23 20:00:00,46.0,36.0,30.04,SW,231,0.0,-999.0,66,0.00,,,-99.99,-0.500000,,2013-03-24 03:00:00,
2013-03-23 20:23:00,46.0,36.0,30.04,SW,231,0.0,-999.0,66,0.00,,,-99.99,-0.500000,,2013-03-24 03:23:00,
2013-03-23 20:33:00,46.0,36.0,30.04,SW,231,0.0,-999.0,66,0.00,,,-99.99,-0.500000,,2013-03-24 03:33:00,
2013-03-23 21:23:00,43.0,34.0,30.05,NNE,26,0.0,-999.0,71,0.00,,,-99.99,-1.900000,,2013-03-24 04:23:00,
2013-03-23 21:33:00,43.0,34.0,30.05,NNE,26,0.0,-999.0,71,0.00,,,-99.99,-1.900000,,2013-03-24 04:33:00,
2013-03-23 22:23:00,41.0,34.0,30.07,North,0,0.0,-999.0,78,0.00,,,-99.99,-1.400000,,2013-03-24 05:23:00,
2013-03-23 22:32:00,41.0,34.0,30.07,North,0,0.0,-999.0,78,0.00,,,-99.99,-1.400000,,2013-03-24 05:32:00,
2013-03-23 23:22:00,41.0,34.0,30.07,WNW,303,1.0,-999.0,76,0.00,,,-99.99,-0.800000,,2013-03-24 06:22:00,
2013-03-23 23:32:00,41.0,34.0,30.07,WNW,303,1.0,-999.0,76,0.00,,,-99.99,-0.800000,,2013-03-24 06:32:00,